Oakwood, IL (61858)

12:51 PM CDT on May 04, 2015 (GMT -0500)
K9ADL | | Change Station
CLOSE
Current Station
Personal Weather Station
Location: Oakwood, IL
Elevation: 725 ft
Nearby Weather Stations

Elev 725 ft 40.17 °N, 87.77 °W | Updated 5 seconds ago

Clear
Clear
73.9 °F
Feels Like 74 °F
N
8.1
Wind Variable Wind from South
Gusts 8.1 mph

Today
High -- | Low -- °F
--% Chance of Precip.
Yesterday
High -- | Low -- °F
Precip. -- in
5:47 AM 7:48 PM
Full, 100% visible
Pressure 30.10 in
Visibility 10.0 miles
Clouds Clear
Heat Index 74 °F
Dew Point 67 °F
Humidity 79%
Rainfall 0.11 in
Snow Depth Not available.
UV 11 out of 12
Pollen 10.50 out of 12
Air Quality Not available.
Flu Activity Local Activity
METAR KDNV 041735Z AUTO 20008KT 10SM CLR 20/17 A3010 RMK AO2 T02030168

More Conditions Fewer Conditions

Pressure 30.10 in
Visibility 10.0 miles
Clouds Clear
Heat Index 74 °F
Dew Point 67 °F
Humidity 79%
Rainfall 0.11 in
Snow Depth Not available.
UV 11 out of 12
Pollen 10.50 out of 12
Air Quality Not available.
Flu Activity Local Activity
METAR KDNV 041735Z AUTO 20008KT 10SM CLR 20/17 A3010 RMK AO2 T02030168

More Conditions Fewer Conditions

Nepal has a long way to go to dig out and rebuild from a devastating earthquake. We have teamed up with several charities and organizations to make contributing to the relief effort as easy as possible.
How you can help: Portlight Strategies | Red Cross

10-Day Weather Forecast

Almanac

Astronomy

May. 04, 2015 Rise Set
Actual Time
Civil Twilight
Nautical Twilight
Astronomical Twilight
Moon
Length of Visible Light
Length of Day
Tomorrow will be .
, % of the Moon is Illuminated

Today's Extremes

State Highs State Lows

Community

WunderPhotos

Upload Photos

1,818,659 photos uploaded!

WunderBlogs® & News

Nearby

Air Quality

  Air Quality AQ Index Pollutant
Not available.

Snow Depth

Station Depth Elevation

Earthquake Activity

City Distance Mag. Time & Date
Minimum magnitude displayed is 2.5.

Coastal Water Temperatures

Place Temperature

Stations

Nearby Weather Stations

Station Location Temp. Windchill Dew Point Humidity Wind Precip. Elev Updated Type